Regional Weather Roundup
Issued by NWS

Home | Current Version | Previous Version | Text Only | Print | Product List | Glossary On
Versions: 1 2 3 4 5 6 7 8 9 10 11 12 13 14 15 16 17 18 19 20 21 22 23 24 25 26 27 28 29 30 31 32 33 34 35 36 37 38 39 40 41 42 43 44 45 46 47 48 49 50
000
ASUS43 KTOP 211759
RWRKS

WEATHER ROUNDUP FOR KANSAS
NATIONAL WEATHER SERVICE GOODLAND KS
100 PM CDT SAT APR 21 2018

NOTE:  "FAIR" INDICATES FEW OR NO CLOUDS BELOW 12,000 FEET WITH NO
SIGNIFICANT WEATHER AND/OR OBSTRUCTIONS TO VISIBILITY.

KSZ001>006-013>018-027>032-041>047-211900-
NORTHWEST KANSAS

CITY           SKY/WX    TMP DP  RH WIND       PRES   REMARKS
GOODLAND       CLOUDY    42  39  89 E9        30.18F
6HR MIN TEMP:  37; 6HR MAX TEMP:  42; 6HR PCP:  0.05;

HAYS           LGT RAIN  44  43  96 E15       30.17F
HILL CITY      CLOUDY    45  44  97 E12       30.20F
6HR MIN TEMP:  41; 6HR MAX TEMP:  45; 6HR PCP:  0.01;

RUSSELL        LGT RAIN  44  44 100 E15       30.17F FOG
6HR MIN TEMP:  43; 6HR MAX TEMP:  44; 6HR PCP:  0.13;

$$

KSZ061>065-074>080-084>089-211900-
SOUTHWEST KANSAS

CITY           SKY/WX    TMP DP  RH WIND       PRES   REMARKS
DODGE CITY     CLOUDY    45  43  93 E8        30.12S FOG
6HR MIN TEMP:  43; 6HR MAX TEMP:  46; 6HR PCP: TRACE;

GARDEN CITY    CLOUDY    43  43 100 NE15      30.13F FOG
GREAT BEND     LGT RAIN  45  44  97 NE12      30.15S FOG
LIBERAL        CLOUDY    45  44  97 N16       30.10S
$$

KSZ066>073-081>083-090>101-211900-
SOUTHEAST KANSAS

CITY           SKY/WX    TMP DP  RH WIND       PRES   REMARKS
CHANUTE        CLOUDY    56  38  50 E12       30.11F
6HR MIN TEMP:  47; 6HR MAX TEMP:  56; 6HR PCP:  0.03;

COFFEYVILLE    CLOUDY    56  42  59 NE7       30.10F
6HR MIN TEMP:  50; 6HR MAX TEMP:  56; 6HR PCP: TRACE;

HUTCHINSON     CLOUDY    48  46  93 E14       30.14F
6HR MIN TEMP:  45; 6HR MAX TEMP:  48; 6HR PCP:  0.07;

MEDICINE LODGE   N/A     47  45  93 E9        30.10S
NEWTON         LGT RAIN  44  42  93 E10       30.15F
PARSONS        CLOUDY    56  40  55 VRB5      30.13F
6HR MIN TEMP:  50; 6HR MAX TEMP:  56;

WICHITA INTL   LGT RAIN  47  46  97 E13       30.13F
6HR MIN TEMP:  45; 6HR MAX TEMP:  47; 6HR PCP:  0.32;

WICHITA JABRA  LGT RAIN  45  44  97 NE13      30.14F
6HR MIN TEMP:  44; 6HR MAX TEMP:  45; 6HR PCP:  0.14;

WICHITA MCCONL LGT RAIN  46  45  98 E10       30.13F
WINFIELD       RAIN      45  45 100 NE9       30.13F
6HR MIN TEMP:  45; 6HR MAX TEMP:  47; 6HR PCP:  0.70;

$$

KSZ007>012-019>026-033>040-048>060-102>105-211900-
NORTHEAST KANSAS

CITY           SKY/WX    TMP DP  RH WIND       PRES   REMARKS
CONCORDIA      CLOUDY    45  42  89 E8        30.21F
6HR MIN TEMP:  43; 6HR MAX TEMP:  45; 6HR PCP:  0.03;

EMPORIA        LGT RAIN  45  42  89 N10       30.18F FOG
6HR MIN TEMP:  44; 6HR MAX TEMP:  46; 6HR PCP:  0.22;

LAWRENCE       LGT RAIN  50  36  58 NE13      30.19F
6HR MIN TEMP:  47; 6HR MAX TEMP:  50; 6HR PCP:  0.04;

MANHATTAN      LGT RAIN  46  42  86 NE12      30.23F
6HR MIN TEMP:  45; 6HR MAX TEMP:  46; 6HR PCP:  0.08;

OLATHE IND     CLOUDY    54  33  45 NE8       30.19F
6HR MIN TEMP:  47; 6HR MAX TEMP:  54; 6HR PCP:  0.01;

OLATHE EXE     CLOUDY    53  32  44 E9        30.19F
6HR MIN TEMP:  48; 6HR MAX TEMP:  53; 6HR PCP: TRACE;

SALINA         LGT RAIN  48  45  89 E12       30.19F
6HR MIN TEMP:  46; 6HR MAX TEMP:  48; 6HR PCP:  0.06;

TOPEKA BILLARD LGT RAIN  47  44  90 N8        30.22F
6HR MIN TEMP:  46; 6HR MAX TEMP:  48; 6HR PCP:  0.09;

TOPEKA FORBES  LGT RAIN  47  43  86 NE7       30.21F
6HR MIN TEMP:  46; 6HR MAX TEMP:  49; 6HR PCP:  0.08;

$$



USA.gov is the U.S. government's official web portal to all federal, state and local government web resources and services.